Regional Weather Roundup
Issued by NWS Newport/Morehead, NC

Current Version | Previous Version | Graphics & Text | Print | Product List | Glossary On
Versions: 1 2 3 4 5 6 7 8 9 10 11 12 13 14 15 16 17 18 19 20 21 22 23 24 25 26 27 28 29 30 31 32 33 34 35 36 37 38 39 40 41 42 43 44 45 46 47 48 49 50
000 ASUS42 KMHX 241413 RWRMHX WEATHER ROUNDUP FOR EASTERN NORTH CAROLINA NATIONAL WEATHER SERVICE NEWPORT/MOREHEAD CITY NC 1000 AM EDT SUN JUL 24 2016 NOTE: "FAIR" INDICATES FEW OR NO CLOUDS BELOW 12,000 FEET WITH NO SIGNIFICANT WEATHER AND/OR OBSTRUCTIONS TO VISIBILITY NCZ015>017-031-032-045>047-102-103-241500- NORTH COAST CITY SKY/WX TMP DP RH WIND PRES REMARKS EDENTON SUNNY 85 73 68 W5 30.02S ELIZABETH CITY SUNNY 85 75 72 SW7 30.00F KITTY HAWK SUNNY 87 75 67 W9 30.00S MANTEO N/A 85 78 80 W6 30.02S $$ NCZ045>047-081-094-103-104-241500- CENTRAL COAST CITY SKY/WX TMP DP RH WIND PRES REMARKS FRISCO PTSUNNY 83 77 82 SW9 30.03S $$ NCZ095-097-098-100-101-241500- SOUTHERN COAST CITY SKY/WX TMP DP RH WIND PRES REMARKS BEAUFORT SUNNY 86 76 71 SW13 30.04R CEDAR ISLAND NOT AVBL JACKSONVILLE SUNNY 86 75 69 SW6 30.03S PINEY ISLAND NOT AVBL WILMINGTON SUNNY 86 76 71 SW12 30.03S $$ NCZ011>013-027>030-043-044-078>080-089-090>093-098-241500- COASTAL PLAIN CITY SKY/WX TMP DP RH WIND PRES REMARKS AHOSKIE SUNNY 84 76 79 CALM 30.01S CLINTON SUNNY 84 78 80 CALM 30.04R ELIZABETHTOWN SUNNY 84 76 77 CALM 30.04R GOLDSBORO SUNNY 85 80 85 VRB1 30.01S GREENVILLE SUNNY 86 77 74 CALM 30.04S HAVELOCK MOSUNNY 87 76 69 SW8 30.04S KENANSVILLE NOT AVBL KINSTON SUNNY 84 75 74 SW5 30.03S NEW BERN SUNNY 86 76 71 W6 30.04S RICHLANDS MOSUNNY 86 78 77 VRB7 30.04S ROCKY MOUNT SUNNY 84 76 76 W5 30.03R WASHINGTON SUNNY 84 77 77 SW3 30.02S WHITEVILLE MOSUNNY 83 76 79 SW3 30.03S $$ AMZ130-135-150-152-154-156-158-170-250-252-270-ANZ085-086-088-633-658-670-241500- MARINE OBSERVATIONS STATION/POSITION TIME TEMP WIND PRES WAVE SWELL AIR SEA DIR/SP/G HT/PER HT/PER (UTC) (F) (DEG/KT/KT) (MB) (FT/S) (FT/S) CHESAPEAKE LIGHT NOT AVBL 64 E VA BEACH 1350 81 81 250/ 12/ 16 1015.2 3/ 5 2/ 9 DUCK 1300 82 60 260/ 12/ 15 1015.4 2 E DUCK 1311 67 N/A 1/ 8 OREGON INLET 1300 81 84 240/ 10/ 11 1016.1 13E OREGON INLT 1400 82 N/A 2/ 9 2/ 9 HATTERAS CG 1300 84 82 220/ 6/ 9 1016.5 DIAMOND BUOY 1350 84 86 260/ 10/ 12 1017.0 3/ 9 2/ 9 CAPE LOOKOUT 1400 85 240/ 8/ 10 1016.8 BEAUFORT LAB 1300 85 83 230/ 4/ 8 1016.4 30 SE NEW RVR IN 1308 85 85 230/ 8/ 12 1017.1 30 SE NEW RVR IN 1325 85 N/A 2/ 8 27 SE WRIGHTSVLE 1308 85 84 250/ 8/ 10 1017.5 5 SE WRIGHTSVLE 1308 84 83 230/ 6/ 10 1018.0 225 S CAPE HAT 1350 83 85 100/ 2/ 4 1018.5 2/ 9 2/ 9 41 SE CHARLESTON 1350 85 86 240/ 10/ 12 1016.9 3/ 8 2/ 8 $$

USA.gov is the U.S. government's official web portal to all federal, state and local government web resources and services.